CW1663 Weather Reports


Display with metric or nautical units.
time (UTC)temp
F
wind
direction
speed
MPH
gust
MPH
rain 1hr
in
rain 24hr
in
rain mn
in
humidity
%
barometer
mb
20260510164305 49 35 7.0 18.0 0.00 0.00 0.00 81 1012.7
20260510163804 49 18 7.0 18.0 0.00 0.00 0.00 81 1012.7
20260510162804 50 54 10.0 17.0 0.00 0.00 0.00 80 1012.7
20260510161304 50 39 7.0 16.0 0.00 0.00 0.00 80 1013.0
20260510160804 50 52 6.0 16.0 0.00 0.00 0.00 80 1013.0
20260510154804 50 37 4.0 12.0 0.00 0.00 0.00 79 1013.3
20260510154304 50 47 5.0 14.0 0.00 0.00 0.00 78 1013.2
20260510153804 50 24 9.0 17.0 0.00 0.00 0.00 78 1013.2
20260510152804 50 24 6.0 13.0 0.00 0.00 0.00 79 1013.3
20260510151804 50 13 7.0 20.0 0.00 0.00 0.00 79 1013.4
20260510151304 50 34 8.0 16.0 0.00 0.00 0.00 79 1013.5
20260510150804 50 52 9.0 20.0 0.00 0.00 0.00 79 1013.5
20260510150305 51 28 5.0 13.0 0.00 0.00 0.00 80 1013.6
20260510145804 51 54 5.0 17.0 0.00 0.00 0.00 80 1013.6
20260510145306 50 52 7.0 14.0 0.00 0.00 0.00 80 1013.7
20260510144304 50 21 6.0 20.0 0.00 0.00 0.00 81 1013.8
20260510143804 50 36 9.0 17.0 0.00 0.00 0.00 81 1013.8
20260510142805 50 36 10.0 17.0 0.00 0.00 0.00 82 1014.1
20260510142306 50 25 9.0 14.0 0.00 0.00 0.00 82 1014.1
20260510141804 50 47 11.0 17.0 0.00 0.00 0.00 81 1014.1
20260510135804 51 52 8.0 20.0 0.00 0.00 0.00 81 1014.3
20260510134304 51 49 10.0 23.0 0.00 0.00 0.00 80 1014.2
20260510133304 52 29 6.0 20.0 0.00 0.00 0.00 79 1014.2
20260510132804 52 46 9.0 16.0 0.00 0.00 0.00 79 1014.2
20260510131804 52 26 12.0 21.0 0.00 0.00 0.00 79 1014.1
20260510130805 52 22 6.0 12.0 0.00 0.00 0.00 79 1014.2
20260510125804 52 0 9.0 20.0 0.00 0.00 0.00 79 1014.2
20260510125306 52 52 9.0 20.0 0.00 0.00 0.00 79 1014.2
20260510121804 52 39 9.0 16.0 0.00 0.00 0.00 78 1014.8
20260510120305 53 50 8.0 23.0 0.00 0.00 0.00 77 1014.6
20260510115306 53 40 8.0 14.0 0.00 0.00 0.00 76 1014.8
20260510114804 54 33 7.0 18.0 0.00 0.00 0.00 75 1014.8
20260510114304 54 39 7.0 16.0 0.00 0.00 0.00 76 1014.8
20260510112804 54 39 7.0 20.0 0.00 0.00 0.00 75 1014.8
20260510112306 54 38 9.0 22.0 0.00 0.00 0.00 74 1014.8
20260510111304 54 37 7.0 20.0 0.00 0.00 0.00 75 1014.8
20260510105804 53 32 7.0 14.0 0.00 0.00 0.00 76 1014.9
20260510103304 53 30 8.0 18.0 0.00 0.00 0.00 77 1015.2
20260510102806 53 23 7.0 16.0 0.00 0.00 0.00 78 1015.2
20260510101304 53 58 6.0 17.0 0.00 0.00 0.00 78 1015.0
20260510094804 53 61 8.0 21.0 0.00 0.00 0.00 79 1015.0
20260510092805 53 41 7.0 18.0 0.00 0.00 0.00 81 1015.0
20260510092306 52 62 6.0 17.0 0.00 0.00 0.00 83 1015.2
20260510091804 52 12 8.0 17.0 0.00 0.00 0.00 84 1015.2
20260510091304 52 35 9.0 16.0 0.00 0.00 0.00 84 1015.2
20260510085805 51 43 6.0 17.0 0.00 0.00 0.00 86 1015.3
20260510085306 51 39 7.0 14.0 0.00 0.00 0.00 86 1015.3
20260510083304 51 13 7.0 18.0 0.00 0.00 0.00 87 1015.5
20260510081304 50 12 6.0 13.0 0.00 0.00 0.00 87 1015.6
20260510080804 50 28 6.0 15.0 0.00 0.00 0.00 87 1015.6
20260510075805 50 31 6.0 12.0 0.00 0.00 0.00 87 1015.6
20260510075306 50 34 6.0 12.0 0.00 0.00 0.00 87 1015.5
20260510072804 50 35 5.0 12.0 0.00 0.00 0.00 87 1015.7
20260510071804 50 35 8.0 13.0 0.00 0.00 0.00 87 1015.8
20260510071304 50 46 4.0 14.0 0.00 0.00 0.00 87 1015.7
20260510070804 49 42 6.0 15.0 0.00 0.00 0.00 87 1015.7
20260510070304 49 54 7.0 14.0 0.00 0.00 0.00 87 1015.8
20260510065804 49 64 5.0 12.0 0.00 0.00 0.00 87 1015.8
20260510064804 49 56 6.0 13.0 0.00 0.00 0.00 87 1015.8
20260510062804 49 41 7.0 12.0 0.00 0.00 0.00 89 1015.8
20260510060804 48 40 6.0 12.0 0.00 0.00 0.00 89 1015.7
20260510055804 48 55 4.0 12.0 0.00 0.00 0.00 90 1015.7
20260510054304 48 43 5.0 12.0 0.00 0.00 0.00 90 1015.6
20260510053804 48 45 5.0 12.0 0.00 0.00 0.00 90 1015.6
20260510052804 47 39 6.0 12.0 0.00 0.00 0.00 90 1015.6
20260510052306 47 39 6.0 12.0 0.00 0.00 0.00 90 1015.7
20260510050804 47 34 5.0 12.0 0.00 0.00 0.00 90 1015.6
20260510050304 47 27 3.0 12.0 0.00 0.00 0.00 90 1015.7
20260510045804 47 21 6.0 13.0 0.00 0.00 0.00 90 1015.7
20260510045306 47 54 6.0 13.0 0.00 0.00 0.00 90 1015.6
20260510044804 47 44 5.0 12.0 0.00 0.00 0.00 90 1015.6
20260510043804 47 35 6.0 16.0 0.00 0.00 0.00 90 1015.5
20260510043304 47 29 5.0 13.0 0.00 0.00 0.00 90 1015.4
20260510042804 47 28 7.0 15.0 0.00 0.00 0.00 90 1015.4
20260510042306 47 26 6.0 14.0 0.00 0.00 0.00 90 1015.6
20260510041804 47 12 6.0 14.0 0.00 0.00 0.00 90 1015.6
20260510040804 48 30 7.0 16.0 0.00 0.00 0.00 90 1015.6
20260510035306 48 21 7.0 13.0 0.00 0.00 0.00 90 1015.8
20260510034304 48 40 7.0 13.0 0.00 0.00 0.00 90 1015.8
20260510033804 48 8 5.0 14.0 0.00 0.00 0.00 90 1015.8
20260510033305 48 16 5.0 13.0 0.00 0.00 0.00 90 1015.8
20260510032306 48 33 6.0 12.0 0.00 0.00 0.00 90 1015.9
20260510031304 49 38 4.0 10.0 0.00 0.00 0.00 90 1015.9
20260510030804 49 24 5.0 12.0 0.00 0.00 0.00 90 1015.9
20260510030304 49 32 5.0 10.0 0.00 0.00 0.00 90 1015.9
20260510025804 49 32 5.0 12.0 0.00 0.00 0.00 90 1015.9
20260510023805 49 48 5.0 12.0 0.00 0.00 0.00 89 1016.0
20260510022804 49 35 5.0 12.0 0.00 0.00 0.00 89 1016.0
20260510021304 50 23 5.0 10.0 0.00 0.00 0.00 88 1015.9
20260510020804 50 39 5.0 10.0 0.00 0.00 0.00 87 1015.9
20260510012804 51 53 4.0 9.0 0.00 0.00 0.00 82 1016.0
20260510011804 51 27 5.0 10.0 0.00 0.00 0.00 82 1016.0
20260510011304 51 58 5.0 12.0 0.00 0.00 0.00 82 1015.9
20260510010304 51 34 3.0 10.0 0.00 0.00 0.00 82 1016.0
20260510005306 51 43 5.0 12.0 0.00 0.00 0.00 81 1016.0
20260510004804 51 51 4.0 10.0 0.00 0.00 0.00 81 1016.0
20260510003304 51 45 5.0 10.0 0.00 0.00 0.00 79 1016.1
20260510002805 51 38 5.0 12.0 0.00 0.00 0.00 79 1016.1
20260510002306 51 41 5.0 12.0 0.00 0.00 0.00 78 1016.0
20260510001805 51 25 5.0 12.0 0.00 0.00 0.00 77 1016.0
20260510001304 51 46 5.0 10.0 0.00 0.00 0.00 76 1016.2
20260510000804 51 51 4.0 10.0 0.00 0.00 0.00 76 1016.2
20260510000304 51 46 5.0 10.0 0.00 0.00 0.00 75 1016.1
20260509234304 51 45 3.0 7.0 0.00 0.00 0.00 74 1016.1
20260509232804 52 41 2.0 10.0 0.00 0.00 0.00 73 1016.1
20260509232306 52 29 5.0 10.0 0.00 0.00 0.00 73 1016.3
20260509231805 52 12 3.0 8.0 0.00 0.00 0.00 73 1016.3
20260509230814 52 50 5.0 9.0 0.00 0.00 0.00 73 1016.3
20260509230305 52 357 4.0 9.0 0.00 0.00 0.00 73 1016.3
20260509225804 52 47 4.0 10.0 0.00 0.00 0.00 73 1016.3
20260509224804 52 42 4.0 10.0 0.00 0.00 0.00 71 1016.4
20260509223804 52 46 3.0 8.0 0.00 0.00 0.00 70 1016.4
20260509221804 52 47 4.0 9.0 0.00 0.00 0.00 68 1016.5
20260509221304 52 46 3.0 9.0 0.00 0.00 0.00 67 1016.4
20260509220804 52 43 3.0 9.0 0.00 0.00 0.00 67 1016.4
20260509220304 52 53 3.0 7.0 0.00 0.00 0.00 66 1016.4
20260509215306 52 13 4.0 9.0 0.00 0.00 0.00 65 1016.3
20260509214804 52 42 3.0 9.0 0.00 0.00 0.00 65 1016.3
20260509213804 52 35 3.0 8.0 0.00 0.00 0.00 64 1016.4
20260509212306 53 15 5.0 12.0 0.00 0.00 0.00 63 1016.2
20260509211304 53 32 5.0 10.0 0.00 0.00 0.00 63 1016.2
20260509210304 53 53 3.0 8.0 0.00 0.00 0.00 62 1016.2
20260509204304 53 36 4.0 9.0 0.00 0.00 0.00 61 1016.0
20260509202804 54 25 5.0 13.0 0.00 0.00 0.00 60 1015.9
20260509202306 54 45 4.0 10.0 0.00 0.00 0.00 60 1015.9
20260509201804 54 43 5.0 12.0 0.00 0.00 0.00 60 1015.9
20260509200804 54 37 5.0 10.0 0.00 0.01 0.00 62 1016.0
20260509200304 55 36 5.0 9.0 0.00 0.01 0.00 63 1015.9
20260509195804 55 14 4.0 9.0 0.00 0.01 0.00 62 1015.9
20260509194805 55 43 6.0 12.0 0.00 0.01 0.00 63 1015.9
20260509193305 56 36 4.0 12.0 0.00 0.01 0.00 63 1015.9
20260509192306 56 41 5.0 12.0 0.00 0.01 0.00 61 1015.7
20260509191304 56 50 6.0 14.0 0.00 0.01 0.00 61 1015.6
20260509190306 57 47 5.0 12.0 0.00 0.01 0.00 60 1015.5
20260509185804 57 42 4.0 12.0 0.00 0.01 0.00 59 1015.5
20260509183804 58 30 5.0 10.0 0.00 0.01 0.00 58 1015.4
20260509182804 59 36 4.0 12.0 0.00 0.01 0.00 58 1015.5
20260509182306 59 66 5.0 12.0 0.00 0.01 0.00 58 1015.5
20260509181304 60 42 4.0 9.0 0.00 0.01 0.00 59 1015.4
20260509180804 60 36 4.0 8.0 0.00 0.01 0.00 58 1015.4
20260509180304 60 58 5.0 10.0 0.00 0.01 0.00 58 1015.6
20260509175306 60 42 4.0 8.0 0.00 0.01 0.00 57 1015.7
20260509174805 60 53 5.0 12.0 0.00 0.01 0.00 56 1015.7
20260509174304 61 39 7.0 13.0 0.00 0.01 0.00 56 1015.4
20260509173804 61 47 4.0 12.0 0.00 0.01 0.00 57 1015.4
20260509173305 61 44 6.0 12.0 0.00 0.01 0.00 57 1015.2
20260509172804 61 48 5.0 9.0 0.00 0.01 0.00 56 1015.2
20260509172306 61 58 7.0 12.0 0.00 0.01 0.00 56 1015.2
20260509171304 63 50 5.0 16.0 0.00 0.01 0.00 57 1015.2
20260509170804 63 63 5.0 12.0 0.00 0.01 0.00 57 1015.2
20260509170304 63 62 3.0 9.0 0.00 0.01 0.00 57 1015.2